KN6CW-3 Weather Reports


time (UTC)temp
C
wind
direction
speed
KPH
gust
KPH
rain 1hr
cm
rain 24hr
cm
rain mn
cm
humidity
%
barometer
mb
20260510031030 8 0 1.6 3.2 0.00 0.76 0.76 97 1010.8
20260510030529 8 0 1.6 4.8 0.00 0.76 0.76 97 1010.8
20260510030034 -17 147 410.4 0.0 0.00 0.00 0.00
20260510030029 8 0 1.6 3.2 0.00 0.76 0.76 97 1011.0
20260510025529 8 0 1.6 4.8 0.00 0.76 0.76 97 1011.0
20260510025028 8 0 1.6 3.2 0.00 0.76 0.76 97 1011.0
20260510024533 -17 147 410.4 0.0 0.00 0.00 0.00
20260510024528 8 0 1.6 3.2 0.00 0.76 0.76 97 1010.9
20260510024028 8 0 1.6 3.2 0.00 0.76 0.76 97 1010.9
20260510023527 9 0 1.6 3.2 0.00 0.76 0.76 97 1010.9
20260510023032 -17 147 410.4 0.0 0.00 0.00 0.00
20260510023027 9 0 1.6 4.8 0.00 0.76 0.76 97 1010.8
20260510022527 9 0 1.6 4.8 0.00 0.76 0.76 97 1010.8
20260510022027 9 0 1.6 4.8 0.00 0.76 0.76 97 1010.8
20260510021531 -17 147 410.4 0.0 0.00 0.00 0.00
20260510021526 9 0 1.6 4.8 0.00 0.76 0.76 97 1010.7
20260510021027 9 0 1.6 3.2 0.00 0.76 0.76 97 1010.9
20260510020526 9 0 1.6 4.8 0.00 0.76 0.76 97 1010.8
20260510020030 -17 147 410.4 0.0 0.00 0.00 0.00
20260510020026 9 0 3.2 4.8 0.00 0.76 0.76 97 1010.8
20260510015525 9 0 3.2 4.8 0.00 0.76 0.76 97 1010.9
20260510015025 9 0 3.2 4.8 0.00 0.76 0.76 97 1010.8
20260510014531 -17 147 410.4 0.0 0.00 0.00 0.00
20260510014524 9 0 3.2 4.8 0.00 0.76 0.76 97 1010.8
20260510014025 8 0 3.2 4.8 0.00 0.76 0.76 96 1010.8
20260510013524 9 0 1.6 4.8 0.00 0.76 0.76 96 1010.8
20260510013029 -17 147 410.4 0.0 0.00 0.00 0.00
20260510013024 9 0 1.6 4.8 0.00 0.76 0.76 96 1010.8
20260510012524 9 0 3.2 6.4 0.00 0.76 0.76 96 1010.7
20260510012023 9 0 1.6 4.8 0.00 0.76 0.76 96 1010.7
20260510011528 -17 147 410.4 0.0 0.00 0.00 0.00
20260510011523 9 0 1.6 3.2 0.00 0.76 0.76 96 1010.6
20260510011022 9 0 1.6 6.4 0.00 0.76 0.76 96 1010.4
20260510010522 9 0 3.2 6.4 0.00 0.76 0.76 96 1010.3
20260510010027 -17 147 410.4 0.0 0.00 0.00 0.00
20260510010022 9 0 3.2 4.8 0.00 0.76 0.76 96 1010.4
20260510005522 9 0 1.6 4.8 0.00 0.76 0.76 96 1010.2
20260510005021 9 0 1.6 8.0 0.00 0.76 0.76 95 1010.2
20260510004526 -17 147 410.4 0.0 0.00 0.00 0.00
20260510004521 9 0 1.6 3.2 0.00 0.76 0.76 95 1010.1
20260510004021 9 0 1.6 6.4 0.00 0.76 0.76 94 1010.0
20260510003521 10 227 1.6 3.2 0.00 0.76 0.76 94 1010.0
20260510003025 -17 147 410.4 0.0 0.00 0.00 0.00
20260510003020 10 227 3.2 6.4 0.00 0.76 0.76 94 1010.0
20260510002520 10 234 3.2 4.8 0.00 0.76 0.76 94 1010.0
20260510002020 10 182 3.2 6.4 0.00 0.76 0.76 94 1010.1
20260510001525 -17 147 410.4 0.0 0.00 0.00 0.00
20260510001519 10 252 1.6 6.4 0.00 0.76 0.76 94 1010.0
20260510001019 10 167 3.2 4.8 0.00 0.76 0.76 94 1009.9
20260510000519 10 172 3.2 6.4 0.00 0.76 0.76 94 1009.8
20260510000023 -17 147 410.4 0.0 0.00 0.00 0.00
20260510000019 10 215 3.2 6.4 0.00 0.76 0.76 94 1009.8
20260509235018 10 196 3.2 4.8 0.00 0.76 0.76 94 1009.6
20260509234522 -17 147 410.4 0.0 0.00 0.00 0.00
20260509234517 10 198 3.2 8.0 0.00 0.76 0.76 94 1009.7
20260509234017 10 213 3.2 8.0 0.00 0.76 0.76 94 1009.6
20260509233517 10 207 3.2 12.9 0.00 0.76 0.76 94 1009.6
20260509233023 -17 147 410.4 0.0 0.00 0.00 0.00
20260509233017 10 219 3.2 6.4 0.00 0.76 0.76 94 1009.5
20260509232516 11 167 1.6 4.8 0.00 0.76 0.76 94 1009.4
20260509232016 11 168 3.2 6.4 0.00 0.76 0.76 94 1009.4
20260509231521 -17 147 410.4 0.0 0.00 0.00 0.00
20260509231516 11 228 3.2 4.8 0.00 0.76 0.76 93 1009.4
20260509231015 11 236 1.6 8.0 0.00 0.76 0.76 93 1009.4
20260509230515 11 184 3.2 4.8 0.00 0.76 0.76 93 1009.4
20260509230020 -17 147 410.4 0.0 0.00 0.00 0.00
20260509230015 11 184 3.2 6.4 0.00 0.76 0.76 93 1009.5
20260509225515 11 236 4.8 8.0 0.00 0.76 0.76 93 1009.5
20260509225014 11 216 4.8 9.7 0.00 0.76 0.76 93 1009.5
20260509224519 -17 147 410.4 0.0 0.00 0.00 0.00
20260509224515 11 214 4.8 11.3 0.00 0.76 0.76 93 1009.5
20260509224014 11 207 4.8 8.0 0.00 0.76 0.76 93 1009.5
20260509223513 11 254 4.8 9.7 0.00 0.76 0.76 94 1009.5
20260509223018 -17 147 410.4 0.0 0.00 0.00 0.00
20260509223013 11 288 4.8 9.7 0.00 0.76 0.76 94 1009.5
20260509222513 11 257 4.8 11.3 0.00 0.76 0.76 94 1009.5
20260509222013 11 251 3.2 9.7 0.00 0.76 0.76 95 1009.6
20260509221517 -17 147 410.4 0.0 0.00 0.00 0.00
20260509221513 11 245 3.2 6.4 0.00 0.76 0.76 95 1009.5
20260509221012 11 250 3.2 6.4 0.00 0.76 0.76 95 1009.5
20260509220512 11 253 3.2 8.0 0.00 0.76 0.76 95 1009.5
20260509220017 -17 147 410.4 0.0 0.00 0.00 0.00
20260509220012 11 265 3.2 8.0 0.00 0.76 0.76 94 1009.6
20260509215511 11 173 3.2 8.0 0.00 0.76 0.76 94 1009.6
20260509215011 11 229 3.2 6.4 0.00 0.76 0.76 95 1009.6
20260509214516 -17 147 410.4 0.0 0.00 0.00 0.00
20260509214511 11 225 3.2 8.0 0.00 0.76 0.76 95 1009.7
20260509214010 11 257 4.8 11.3 0.00 0.76 0.76 95 1009.7
20260509213510 11 282 3.2 9.7 0.00 0.76 0.76 95 1009.8
20260509213014 -17 147 410.4 0.0 0.00 0.00 0.00
20260509213010 11 252 3.2 11.3 0.00 0.76 0.76 96 1009.7
20260509212510 11 232 4.8 8.0 0.00 0.76 0.76 96 1009.6
20260509212010 11 258 4.8 9.7 0.00 0.76 0.76 96 1009.7
20260509211514 -17 147 410.4 0.0 0.00 0.00 0.00
20260509211509 11 262 3.2 9.7 0.00 0.76 0.76 96 1009.8
20260509211008 11 251 3.2 6.4 0.00 0.76 0.76 96 1009.9
20260509210508 11 248 4.8 9.7 0.00 0.76 0.76 96 1009.8
20260509210013 -17 147 410.4 0.0 0.00 0.00 0.00
20260509210008 10 311 4.8 9.7 0.03 0.76 0.76 96 1009.9
20260509205508 10 239 4.8 8.0 0.03 0.76 0.76 96 1009.9
20260509205007 10 200 4.8 11.3 0.05 0.76 0.76 96 1009.9
20260509204512 -17 147 410.4 0.0 0.00 0.00 0.00
20260509204507 10 152 3.2 11.3 0.05 0.76 0.76 96 1009.9
20260509204007 10 194 3.2 9.7 0.05 0.76 0.76 96 1009.9
20260509203506 10 229 4.8 9.7 0.08 0.76 0.76 97 1010.0
20260509203011 -17 147 410.4 0.0 0.00 0.00 0.00
20260509203006 10 266 4.8 12.9 0.10 0.76 0.76 96 1010.1
20260509202506 10 250 6.4 9.7 0.10 0.76 0.76 96 1010.0
20260509202006 10 240 6.4 14.5 0.13 0.76 0.76 97 1010.1
20260509201510 -17 147 410.4 0.0 0.00 0.00 0.00
20260509201505 10 246 6.4 12.9 0.13 0.76 0.76 97 1010.3
20260509201005 10 166 4.8 11.3 0.15 0.76 0.76 97 1010.3
20260509200505 10 261 4.8 12.9 0.18 0.76 0.76 97 1010.4
20260509200107 10 242 3.2 8.0 0.15 0.74 0.74 97 1010.4
20260509200009 -17 147 410.4 0.0 0.00 0.00 0.00
20260509200004 10 242 3.2 8.0 0.15 0.74 0.74 97 1010.4
20260509195504 10 240 3.2 8.0 0.18 0.74 0.74 97 1010.3
20260509195004 10 247 3.2 8.0 0.15 0.71 0.71 97 1010.3
20260509194508 -17 147 410.4 0.0 0.00 0.00 0.00
20260509194504 10 240 3.2 6.4 0.18 0.71 0.71 97 1010.2
20260509194003 9 192 1.6 6.4 0.20 0.71 0.71 97 1010.3
20260509193503 9 239 1.6 8.0 0.18 0.69 0.69 97 1010.3
20260509193007 -17 147 410.4 0.0 0.00 0.00 0.00
20260509193003 9 230 1.6 3.2 0.18 0.66 0.66 97 1010.5
20260509192502 9 230 3.2 4.8 0.18 0.66 0.66 97 1010.6
20260509192002 9 199 3.2 6.4 0.18 0.64 0.64 97 1010.8
20260509191507 -17 147 410.4 0.0 0.00 0.00 0.00
20260509191502 9 249 1.6 4.8 0.20 0.64 0.64 97 1010.7
20260509191002 9 249 3.2 4.8 0.18 0.61 0.61 97 1010.8
20260509190501 9 250 3.2 8.0 0.18 0.58 0.58 96 1011.0
20260509190006 -17 147 410.4 0.0 0.00 0.00 0.00
20260509190001 9 233 3.2 8.0 0.20 0.58 0.58 96 1011.1
20260509185501 9 250 4.8 9.7 0.18 0.56 0.56 96 1011.1
20260509185000 9 236 4.8 9.7 0.20 0.56 0.56 96 1011.3
20260509184505 -17 147 410.4 0.0 0.00 0.00 0.00
20260509184500 9 229 4.8 9.7 0.20 0.53 0.53 96 1011.3
20260509184000 9 242 3.2 9.7 0.18 0.51 0.51 96 1011.3
20260509183459 9 242 4.8 9.7 0.20 0.51 0.51 96 1011.3
20260509183005 -17 147 410.4 0.0 0.00 0.00 0.00
20260509182959 9 259 4.8 14.5 0.18 0.48 0.48 96 1011.3
20260509182459 8 269 4.8 11.3 0.20 0.48 0.48 96 1011.2
20260509181959 8 246 4.8 11.3 0.20 0.46 0.46 96 1011.2
20260509181503 -17 147 410.4 0.0 0.00 0.00 0.00
20260509181458 8 285 4.8 6.4 0.18 0.43 0.43 96 1011.2
20260509180958 8 252 4.8 9.7 0.20 0.43 0.43 96 1011.3
20260509180458 8 263 6.4 12.9 0.20 0.41 0.41 96 1011.4
20260509180004 -17 147 410.4 0.0 0.00 0.00 0.00
20260509175958 8 241 4.8 16.1 0.18 0.38 0.38 96 1011.3
20260509175457 8 228 4.8 11.3 0.20 0.38 0.38 96 1011.3
20260509174957 8 217 4.8 9.7 0.18 0.36 0.36 96 1011.2
20260509174501 -17 147 410.4 0.0 0.00 0.00 0.00
20260509174457 8 233 3.2 9.7 0.18 0.33 0.33 96 1011.3
20260509173956 8 233 3.2 9.7 0.18 0.33 0.33 96 1011.3
20260509173456 8 233 3.2 11.3 0.18 0.30 0.30 96 1011.4
20260509173000 -17 147 410.4 0.0 0.00 0.00 0.00
20260509172956 9 350 1.6 6.4 0.18 0.30 0.30 96 1011.3
20260509172455 8 220 3.2 8.0 0.15 0.28 0.28 96 1011.4
20260509171955 8 244 3.2 12.9 0.15 0.25 0.25 96 1011.5
20260509171500 -17 147 410.4 0.0 0.00 0.00 0.00
20260509171455 8 167 4.8 11.3 0.15 0.25 0.25 96 1011.6
20260509170954 9 234 4.8 9.7 0.13 0.23 0.23 96 1011.6
20260509170454 9 252 4.8 9.7 0.13 0.20 0.20 96 1011.7
20260509170000 -17 147 410.4 0.0 0.00 0.00 0.00
20260509165954 9 230 4.8 11.3 0.13 0.20 0.20 96 1011.5
20260509165456 9 212 4.8 12.9 0.10 0.18 0.18 95 1011.5
20260509164953 9 201 4.8 11.3 0.10 0.18 0.18 95 1011.5
20260509164458 -17 147 410.4 0.0 0.00 0.00 0.00
20260509164453 9 223 3.2 11.3 0.08 0.15 0.15 95 1011.5
20260509163953 9 257 4.8 6.4 0.08 0.15 0.15 95 1011.6
20260509163452 9 266 4.8 11.3 0.05 0.13 0.13 95 1011.6
20260509162957 -17 147 410.4 0.0 0.00 0.00 0.00
20260509162952 10 234 3.2 8.0 0.05 0.13 0.13 95 1011.6
20260509162452 10 235 3.2 8.0 0.05 0.13 0.13 95 1011.6
20260509161952 10 169 3.2 6.4 0.05 0.10 0.10 95 1011.6
20260509161456 -17 147 410.4 0.0 0.00 0.00 0.00
20260509161452 10 238 3.2 8.0 0.05 0.10 0.10 95 1011.6
20260509160951 10 234 3.2 6.4 0.05 0.10 0.10 95 1011.7
20260509160451 10 167 4.8 9.7 0.03 0.08 0.08 95 1011.6
20260509155956 -17 147 410.4 0.0 0.00 0.00 0.00
20260509155950 10 207 4.8 9.7 0.03 0.08 0.08 95 1011.8
20260509155450 10 181 3.2 9.7 0.03 0.08 0.08 95 1011.8
20260509154950 10 239 3.2 6.4 0.03 0.08 0.08 95 1011.9
20260509154454 -17 147 410.4 0.0 0.00 0.00 0.00
20260509154450 10 224 3.2 6.4 0.03 0.08 0.08 96 1011.9
20260509153949 10 227 3.2 8.0 0.03 0.08 0.08 95 1011.9
20260509153449 9 159 3.2 6.4 0.03 0.08 0.08 95 1011.9
20260509152954 -17 147 410.4 0.0 0.00 0.00 0.00
20260509152949 9 161 3.2 6.4 0.03 0.08 0.08 95 1012.0
20260509152449 9 175 1.6 6.4 0.03 0.08 0.08 95 1012.1
20260509151948 9 190 1.6 6.4 0.00 0.05 0.05 95 1012.2
20260509151453 -17 147 410.4 0.0 0.00 0.00 0.00
20260509151448 9 262 3.2 4.8 0.00 0.05 0.05 95 1012.1
20260509150948 9 263 3.2 4.8 0.00 0.05 0.05 94 1012.0
20260509150447 9 263 1.6 8.0 0.00 0.05 0.05 94 1011.9
20260509145953 -17 147 410.4 0.0 0.00 0.00 0.00
20260509145947 9 142 1.6 3.2 0.03 0.05 0.05 94 1011.6
20260509145447 9 142 1.6 3.2 0.03 0.05 0.05 94 1011.5
20260509144947 9 142 1.6 3.2 0.03 0.05 0.05 94 1011.5
20260509144451 -17 147 410.4 0.0 0.00 0.00 0.00
20260509144447 9 142 1.6 3.2 0.03 0.05 0.05 94 1011.5
20260509143946 9 143 1.6 4.8 0.03 0.05 0.05 94 1011.5
20260509143446 9 143 1.6 1.6 0.05 0.05 0.05 94 1011.4
20260509142950 -17 147 410.4 0.0 0.00 0.00 0.00
20260509142945 8 143 1.6 3.2 0.05 0.05 0.05 94 1011.6
20260509142445 8 143 0.0 3.2 0.05 0.05 0.05 94 1011.7
20260509141945 8 143 0.0 3.2 0.05 0.05 0.05 94 1011.8
20260509141449 -17 147 410.4 0.0 0.00 0.00 0.00
20260509141445 8 143 0.0 3.2 0.05 0.05 0.05 94 1011.9
20260509140946 8 143 0.0 4.8 0.05 0.05 0.05 94 1011.9
20260509140444 8 143 1.6 4.8 0.05 0.05 0.05 94 1012.0
20260509135948 -17 147 410.4 0.0 0.00 0.00 0.00
20260509135946 8 144 1.6 1.6 0.03 0.03 0.03 93 1012.0
20260509135443 8 144 1.6 4.8 0.03 0.03 0.03 92 1012.0
20260509134943 8 144 1.6 4.8 0.03 0.03 0.03 92 1011.9
20260509134447 -17 147 410.4 0.0 0.00 0.00 0.00
20260509134443 8 144 3.2 4.8 0.03 0.03 0.03 91 1011.8
20260509133943 8 126 3.2 8.0 0.03 0.03 0.03 92 1011.5
20260509133442 8 128 1.6 6.4 0.00 0.00 0.00 91 1011.4
20260509132947 -17 147 410.4 0.0 0.00 0.00 0.00
20260509132942 8 128 1.6 3.2 0.00 0.00 0.00 91 1011.3
20260509132442 8 128 1.6 6.4 0.00 0.00 0.00 90 1011.4
20260509131941 8 104 1.6 6.4 0.00 0.00 0.00 90 1011.3
20260509131446 -17 147 410.4 0.0 0.00 0.00 0.00
20260509131441 9 103 1.6 4.8 0.00 0.00 0.00 89 1011.2
20260509130941 9 158 1.6 4.8 0.00 0.00 0.00 89 1011.1
20260509130441 9 159 1.6 3.2 0.00 0.00 0.00 88 1011.3
20260509125946 -17 147 410.4 0.0 0.00 0.00 0.00
20260509125940 8 159 3.2 4.8 0.00 0.00 0.00 87 1011.6
20260509125440 8 109 3.2 6.4 0.00 0.00 0.00 87 1011.6
20260509124940 8 211 3.2 8.0 0.00 0.00 0.00 87 1011.6
20260509124444 -17 147 410.4 0.0 0.00 0.00 0.00
20260509124439 8 192 1.6 8.0 0.00 0.00 0.00 87 1011.4
20260509123939 8 118 1.6 4.8 0.00 0.00 0.00 86 1011.5
20260509123439 8 119 3.2 8.0 0.00 0.00 0.00 86 1011.7
20260509122945 -17 147 410.4 0.0 0.00 0.00 0.00
20260509122938 9 115 1.6 4.8 0.00 0.00 0.00 85 1011.7
20260509122438 9 116 1.6 4.8 0.00 0.00 0.00 85 1011.7
20260509121938 9 116 3.2 9.7 0.00 0.00 0.00 84 1011.7
20260509121442 -17 147 410.4 0.0 0.00 0.00 0.00
20260509121438 9 120 3.2 8.0 0.00 0.00 0.00 84 1011.8
20260509120937 9 69 3.2 8.0 0.00 0.00 0.00 83 1011.8
20260509120437 9 116 1.6 6.4 0.00 0.00 0.00 83 1011.8
20260509115942 -17 147 410.4 0.0 0.00 0.00 0.00
20260509115937 9 123 3.2 4.8 0.00 0.00 0.00 82 1011.9
20260509115436 9 217 3.2 8.0 0.00 0.00 0.00 82 1012.1
20260509114936 9 75 1.6 11.3 0.00 0.00 0.00 82 1011.6
20260509114440 -17 147 410.4 0.0 0.00 0.00 0.00
20260509114436 8 76 1.6 4.8 0.00 0.00 0.00 83 1011.6
20260509113935 8 76 1.6 3.2 0.00 0.00 0.00 82 1011.4
20260509113435 8 76 1.6 6.4 0.00 0.00 0.00 83 1011.5
20260509112940 -17 147 410.4 0.0 0.00 0.00 0.00
20260509112935 8 76 1.6 4.8 0.00 0.00 0.00 83 1011.5
20260509112434 8 75 1.6 4.8 0.00 0.00 0.00 82 1011.5
20260509111934 8 74 3.2 6.4 0.00 0.00 0.00 82 1011.4
20260509111439 -17 147 410.4 0.0 0.00 0.00 0.00
20260509111434 8 85 3.2 9.7 0.00 0.00 0.00 82 1011.6
20260509110934 8 81 1.6 4.8 0.00 0.00 0.00 83 1011.6
20260509110433 8 82 1.6 3.2 0.00 0.00 0.00 83 1011.7
20260509105938 -17 147 410.4 0.0 0.00 0.00 0.00
20260509105933 8 82 1.6 3.2 0.00 0.00 0.00 83 1011.7
20260509105433 8 82 1.6 8.0 0.00 0.00 0.00 82 1011.5
20260509104932 8 98 1.6 6.4 0.00 0.00 0.00 84 1011.4
20260509104432 8 108 1.6 4.8 0.00 0.00 0.00 84 1011.5
20260509103932 8 109 3.2 8.0 0.00 0.00 0.00 84 1011.2
20260509103432 8 105 3.2 9.7 0.00 0.00 0.00 84 1011.1
20260509102936 -17 147 410.4 0.0 0.00 0.00 0.00
20260509102931 8 65 3.2 9.7 0.00 0.00 0.00 84 1011.0
20260509102431 8 128 1.6 4.8 0.00 0.00 0.00 85 1011.1
20260509101931 8 147 1.6 3.2 0.00 0.00 0.00 85 1011.3
20260509101435 -17 147 410.4 0.0 0.00 0.00 0.00
20260509101430 8 158 0.0 3.2 0.00 0.00 0.00 84 1011.3
20260509100930 8 158 1.6 1.6 0.00 0.00 0.00 84 1011.4
20260509100430 8 158 1.6 4.8 0.00 0.00 0.00 84 1011.3
20260509095934 -17 147 410.4 0.0 0.00 0.00 0.00
20260509095930 8 199 0.0 1.6 0.00 0.00 0.00 84 1011.4
20260509095429 8 199 0.0 3.2 0.00 0.00 0.00 83 1011.5
20260509094937 8 200 0.0 1.6 0.00 0.00 0.00 83 1011.6
20260509094433 -17 147 410.4 0.0 0.00 0.00 0.00
20260509094429 8 200 0.0 1.6 0.00 0.00 0.00 82 1011.7
20260509093928 8 200 0.0 0.0 0.00 0.00 0.00 82 1011.8
20260509093428 8 200 0.0 1.6 0.00 0.00 0.00 81 1011.7
20260509092933 -17 147 410.4 0.0 0.00 0.00 0.00
20260509092928 8 200 0.0 3.2 0.00 0.00 0.00 81 1011.7
20260509092428 8 200 0.0 3.2 0.00 0.00 0.00 80 1011.7
20260509091927 8 200 0.0 3.2 0.00 0.00 0.00 80 1011.7
20260509091432 -17 147 410.4 0.0 0.00 0.00 0.00
20260509091427 8 201 0.0 1.6 0.00 0.00 0.00 80 1011.8
20260509090927 8 201 0.0 1.6 0.00 0.00 0.00 80 1011.8
20260509090426 8 201 0.0 1.6 0.00 0.00 0.00 80 1011.9
20260509085933 -17 147 410.4 0.0 0.00 0.00 0.00
20260509085926 8 202 0.0 0.0 0.00 0.00 0.00 80 1011.9
20260509085426 8 202 0.0 0.0 0.00 0.00 0.00 80 1011.9
20260509084925 8 201 0.0 0.0 0.00 0.00 0.00 80 1011.9
20260509084427 8 201 0.0 0.0 0.00 0.00 0.00 81 1012.0
20260509083925 8 201 0.0 0.0 0.00 0.00 0.00 81 1012.1
20260509083425 8 202 0.0 0.0 0.00 0.00 0.00 81 1012.2
20260509082929 -17 147 410.4 0.0 0.00 0.00 0.00
20260509082924 8 201 0.0 0.0 0.00 0.00 0.00 81 1012.2
20260509082424 8 202 0.0 0.0 0.00 0.00 0.00 82 1012.2
20260509081924 8 201 0.0 0.0 0.00 0.00 0.00 82 1012.2
20260509081428 -17 147 410.4 0.0 0.00 0.00 0.00
20260509081424 8 202 0.0 0.0 0.00 0.00 0.00 82 1012.2
20260509080923 8 201 0.0 0.0 0.00 0.00 0.00 82 1012.4
20260509080423 8 202 0.0 0.0 0.00 0.00 0.00 82 1012.4
20260509075927 -17 147 410.4 0.0 0.00 0.00 0.00
20260509075923 8 202 0.0 0.0 0.00 0.00 0.00 82 1012.5
20260509075422 8 202 0.0 0.0 0.00 0.00 0.00 82 1012.4
20260509074922 8 201 0.0 0.0 0.00 0.00 0.00 82 1012.4
20260509074427 -17 147 410.4 0.0 0.00 0.00 0.00
20260509074422 8 201 0.0 0.0 0.00 0.00 0.00 82 1012.5
20260509073921 8 201 0.0 0.0 0.00 0.00 0.00 82 1012.5
20260509073421 8 202 0.0 0.0 0.00 0.00 0.00 83 1012.5
20260509072926 -17 147 410.4 0.0 0.00 0.00 0.00
20260509072921 8 202 0.0 1.6 0.00 0.00 0.00 83 1012.5
20260509072421 8 202 0.0 1.6 0.00 0.00 0.00 83 1012.4
20260509071920 8 202 0.0 0.0 0.00 0.00 0.00 84 1012.4
20260509071426 -17 147 410.4 0.0 0.00 0.00 0.00
20260509071420 8 202 0.0 0.0 0.00 0.00 0.00 84 1012.4
20260509070920 8 202 0.0 0.0 0.00 0.00 0.00 84 1012.5
20260509070419 8 202 0.0 0.0 0.00 0.00 0.00 84 1012.6
20260509065924 -17 147 410.4 0.0 0.00 0.00 0.00
20260509065919 8 201 0.0 0.0 0.00 0.00 0.00 84 1012.6
20260509065419 8 202 0.0 0.0 0.00 0.00 0.00 84 1012.6
20260509064919 8 201 0.0 1.6 0.00 0.00 0.00 85 1012.6
20260509064424 -17 147 410.4 0.0 0.00 0.00 0.00
20260509064419 8 202 0.0 1.6 0.00 0.00 0.00 85 1012.6
20260509063918 8 201 0.0 3.2 0.00 0.00 0.00 84 1012.7
20260509063418 8 202 1.6 1.6 0.00 0.00 0.00 85 1012.7
20260509062923 -17 147 410.4 0.0 0.00 0.00 0.00
20260509062918 8 202 1.6 3.2 0.00 0.03 0.00 86 1012.7
20260509062417 8 201 0.0 3.2 0.00 0.03 0.00 86 1012.6
20260509061917 8 201 0.0 0.0 0.00 0.03 0.00 85 1012.6
20260509061423 -17 147 410.4 0.0 0.00 0.00 0.00
20260509061416 8 201 0.0 0.0 0.00 0.03 0.00 84 1012.5
20260509060916 8 201 0.0 1.6 0.00 0.03 0.00 85 1012.5
20260509060416 8 201 0.0 1.6 0.00 0.03 0.00 85 1012.6
20260509055921 -17 147 410.4 0.0 0.00 0.00 0.00
20260509055415 8 201 0.0 0.0 0.00 0.03 0.00 85 1012.5
20260509054420 -17 147 410.4 0.0 0.00 0.00 0.00
20260509054415 8 201 0.0 0.0 0.00 0.03 0.00 85 1012.6
20260509053915 8 201 0.0 0.0 0.00 0.03 0.00 85 1012.7
20260509053414 8 201 0.0 3.2 0.00 0.03 0.00 85 1012.8
20260509052919 -17 147 410.4 0.0 0.00 0.00 0.00
20260509052914 8 201 1.6 1.6 0.00 0.10 0.00 84 1013.1
20260509052414 8 201 1.6 4.8 0.00 0.10 0.00 83 1013.4
20260509051913 8 240 1.6 6.4 0.00 0.10 0.00 83 1013.6
20260509051418 -17 147 410.4 0.0 0.00 0.00 0.00
20260509051413 8 242 1.6 6.4 0.00 0.10 0.00 83 1013.7
20260509050913 8 169 1.6 4.8 0.00 0.10 0.00 83 1013.6
20260509050412 8 169 3.2 4.8 0.00 0.10 0.00 83 1013.6
20260509045917 -17 147 410.4 0.0 0.00 0.00 0.00
20260509045912 8 240 3.2 8.0 0.00 0.10 0.00 82 1013.6
20260509045412 8 270 3.2 6.4 0.00 0.10 0.00 83 1013.6
20260509044912 8 177 3.2 6.4 0.00 0.10 0.00 82 1013.6
20260509044416 -17 147 410.4 0.0 0.00 0.00 0.00
20260509044411 8 186 3.2 8.0 0.00 0.10 0.00 83 1013.6
20260509043911 8 135 3.2 6.4 0.00 0.10 0.00 83 1013.5
20260509043411 8 169 3.2 6.4 0.00 0.10 0.00 83 1013.5
20260509042915 -17 147 410.4 0.0 0.00 0.00 0.00
20260509042910 8 195 1.6 8.0 0.00 0.10 0.00 84 1013.5
20260509042410 8 261 1.6 3.2 0.00 0.10 0.00 84 1013.2
20260509041910 9 261 0.0 4.8 0.00 0.10 0.00 82 1013.0
20260509041414 -17 147 410.4 0.0 0.00 0.00 0.00
20260509041410 9 261 0.0 0.0 0.00 0.10 0.00 82 1012.6
20260509040909 9 261 0.0 1.6 0.00 0.10 0.00 81 1012.5
20260509040409 9 261 1.6 3.2 0.00 0.10 0.10 82 1012.8
20260509035914 -17 147 410.4 0.0 0.00 0.00 0.00
20260509035909 9 261 1.6 4.8 0.00 0.10 0.10 82 1013.0
20260509035408 9 261 1.6 3.2 0.00 0.10 0.10 83 1013.0
20260509034908 9 261 1.6 4.8 0.00 0.10 0.10 82 1012.9
20260509034413 -17 147 410.4 0.0 0.00 0.00 0.00
20260509034408 9 213 1.6 8.0 0.00 0.10 0.10 82 1012.9
20260509033907 9 237 0.0 3.2 0.00 0.10 0.10 82 1012.9
20260509033407 9 237 0.0 3.2 0.00 0.10 0.10 81 1013.1
20260509032912 -17 147 410.4 0.0 0.00 0.00 0.00
20260509032907 9 237 0.0 1.6 0.00 0.10 0.10 80 1013.1
20260509032407 9 237 0.0 3.2 0.00 0.10 0.10 79 1013.3
20260509031907 9 237 0.0 4.8 0.00 0.10 0.10 79 1013.4
20260509031411 -17 147 410.4 0.0 0.00 0.00 0.00
20260509031406 9 236 0.0 3.2 0.00 0.10 0.10 79 1013.5